Olathe, KS

2:46 PM CDT on September 19, 2017 (GMT -0500)
Johnson County Executive

Weather History for KOJC - October, 2012

Change the Weather History Date:

Thursday, October 11, 2012

  Actual Average Record
Temperature  
Mean Temperature 56 °F 59 °F  
Max Temperature 70 °F 69 °F 90 °F (1960)
Min Temperature 41 °F 49 °F 32 °F (1987)
Degree Days  
Heating Degree Days 9 7  
Month to date heating degree days 138 66  
Since 1 July heating degree days 176 115  
Cooling Degree Days 0 1  
Month to date cooling degree days 2 18  
Year to date cooling degree days 1799 1339  
Growing Degree Days 5 (Base 50)    
Moisture  
Dew Point 45 °F    
Average Humidity 68    
Maximum Humidity 78    
Minimum Humidity 57    
Precipitation  
Precipitation T in 0.12 in 2.80 in (1973)
Month to date precipitation 0.01 1.36  
Year to date precipitation 21.73 33.83  
Sea Level Pressure  
Sea Level Pressure 30.11 in    
Wind  
Wind Speed 6 mph (SSE)    
Max Wind Speed 13 mph    
Max Gust Speed 18 mph    
Visibility 10 miles    
Events      
T = Trace of Precipitation, MM = Missing Value Source: NWS Daily Summary

Daily Weather History Graph

Daily Weather History Graph

Search for Another Location

Airport or City:

Trip Planner

Search our weather history database for the weather conditions in past years. The results will help you decide how hot, cold, wet, or windy it might be!

Date:

Astronomy

Oct. 11, 2012 Rise Set
Actual Time 7:24 AM CDT 6:45 PM CDT
Civil Twilight 6:58 AM CDT 7:12 PM CDT
Nautical Twilight 6:27 AM CDT 7:43 PM CDT
Astronomical Twilight 5:56 AM CDT 8:13 PM CDT
Moon 3:06 AM CDT (10/11) 4:20 PM CDT (10/11)
Length of Visible Light 12h 14m
Length of Day
11h 20m
Waning Crescent, 18% of the Moon is Illuminated
Oct 11
Waning Crescent
Oct 15
New
Oct 21
First Quarter
Oct 29
Full
Nov 6
Last Quarter

Hourly Weather History & Observations

Time (CDT) Temp. Windchill Dew Point Humidity Pressure Visibility Wind Dir Wind Speed Gust Speed Precip Events Conditions
12:53 AM 45.0 °F - 33.1 °F 63% 30.15 in 10.0 mi Calm Calm - N/A   Clear
1:53 AM 43.0 °F 40.3 °F 34.0 °F 71% 30.14 in 10.0 mi SSE 4.6 mph - N/A   Clear
2:53 AM 43.0 °F 40.3 °F 33.1 °F 68% 30.14 in 10.0 mi SSE 4.6 mph - N/A   Clear
3:53 AM 42.1 °F 38.4 °F 33.1 °F 70% 30.12 in 10.0 mi SSE 5.8 mph - N/A   Clear
4:53 AM 43.0 °F 40.3 °F 33.1 °F 68% 30.11 in 10.0 mi SSE 4.6 mph - N/A   Clear
5:53 AM 42.1 °F 39.2 °F 34.0 °F 73% 30.10 in 10.0 mi South 4.6 mph - N/A   Scattered Clouds
6:53 AM 46.0 °F 43.1 °F 37.0 °F 71% 30.10 in 10.0 mi SSE 5.8 mph - N/A   Overcast
7:53 AM 46.9 °F - 37.9 °F 71% 30.10 in 10.0 mi SSE 6.9 mph - N/A   Overcast
8:53 AM 48.9 °F - 39.9 °F 71% 30.11 in 10.0 mi SSE 5.8 mph - N/A   Mostly Cloudy
9:53 AM 55.9 °F - 42.1 °F 60% 30.11 in 10.0 mi SSW 10.4 mph - N/A   Overcast
10:31 AM 57.2 °F - 44.6 °F 63% 30.11 in 10.0 mi South 9.2 mph - N/A   Overcast
10:53 AM 59.0 °F - 45.0 °F 60% 30.12 in 10.0 mi South 10.4 mph - N/A   Overcast
11:48 AM 62.6 °F - 48.2 °F 59% 30.11 in 10.0 mi South 8.1 mph - N/A   Overcast
11:53 AM 63.0 °F - 48.9 °F 60% 30.10 in 10.0 mi South 8.1 mph - N/A   Overcast
12:53 PM 64.9 °F - 51.1 °F 61% 30.08 in 10.0 mi SSW 8.1 mph - N/A   Overcast
1:53 PM 66.9 °F - 54.0 °F 63% 30.05 in 10.0 mi SW 9.2 mph - N/A   Partly Cloudy
3:53 PM 68.0 °F - 55.0 °F 63% 30.04 in 9.0 mi South 4.6 mph - N/A   Overcast
5:53 PM 66.0 °F - 55.0 °F 68% 30.05 in 10.0 mi SSE 5.8 mph - N/A   Overcast
6:53 PM 64.9 °F - 55.0 °F 70% 30.06 in 10.0 mi SE 4.6 mph - N/A   Overcast
8:53 PM 63.0 °F - 55.0 °F 75% 30.12 in 10.0 mi East 4.6 mph - N/A   Overcast
9:53 PM 62.1 °F - 55.0 °F 78% 30.14 in 10.0 mi ESE 3.5 mph - 0.00 in   Overcast
10:53 PM 61.0 °F - 54.0 °F 78% 30.15 in 10.0 mi Calm Calm - N/A   Overcast
11:53 PM 61.0 °F - 54.0 °F 78% 30.16 in 10.0 mi ENE 4.6 mph - N/A   Overcast